| time (UTC) | temp F | wind direction | speed MPH | gust MPH | rain 1hr in | rain 24hr in | rain mn in | humidity % | barometer mb |
| 20260506230609 | 49 | 158 | 0.0 | 2.0 | 0.00 | 0.00 | 0.00 | 79 | 1013.5 |
| 20260506225606 | 49 | 23 | 0.0 | 2.0 | 0.00 | 0.00 | 0.00 | 79 | 1013.3 |
| 20260506224604 | 49 | 42 | 0.0 | 2.0 | 0.00 | 0.00 | 0.00 | 78 | 1013.4 |
| 20260506223601 | 49 | 0 | 0.0 | 2.0 | 0.00 | 0.00 | 0.00 | 78 | 1013.4 |
| 20260506222559 | 49 | 0.0 | 2.0 | 0.00 | 0.00 | 0.00 | 78 | 1013.2 | |
| 20260506221556 | 49 | 359 | 1.0 | 4.0 | 0.00 | 0.00 | 0.00 | 78 | 1013.1 |
| 20260506220554 | 49 | 68 | 0.0 | 4.0 | 0.00 | 0.00 | 0.00 | 78 | 1013.2 |
| 20260506215551 | 49 | 0.0 | 2.0 | 0.00 | 0.00 | 0.00 | 78 | 1013.2 | |
| 20260506214548 | 49 | 23 | 0.0 | 2.0 | 0.00 | 0.00 | 0.00 | 78 | 1013.1 |
| 20260506213546 | 49 | 0 | 0.0 | 2.0 | 0.00 | 0.00 | 0.00 | 77 | 1013.0 |
| 20260506212543 | 49 | 15 | 0.0 | 2.0 | 0.00 | 0.00 | 0.00 | 77 | 1012.9 |
| 20260506211541 | 50 | 0.0 | 2.0 | 0.00 | 0.00 | 0.00 | 76 | 1012.9 | |
| 20260506210538 | 50 | 0 | 0.0 | 4.0 | 0.00 | 0.00 | 0.00 | 75 | 1012.8 |
| 20260506205536 | 50 | 0.0 | 0.0 | 0.00 | 0.00 | 0.00 | 74 | 1012.8 | |
| 20260506204533 | 50 | 0.0 | 2.0 | 0.00 | 0.00 | 0.00 | 74 | 1012.8 | |
| 20260506203531 | 50 | 23 | 0.0 | 2.0 | 0.00 | 0.00 | 0.00 | 74 | 1012.8 |
| 20260506202528 | 50 | 23 | 0.0 | 2.0 | 0.00 | 0.00 | 0.00 | 74 | 1012.7 |
| 20260506201526 | 50 | 0 | 0.0 | 2.0 | 0.00 | 0.00 | 0.00 | 73 | 1012.6 |
| 20260506200523 | 50 | 20 | 0.0 | 2.0 | 0.00 | 0.00 | 0.00 | 71 | 1012.6 |
| 20260506195515 | 51 | 12 | 0.0 | 2.0 | 0.00 | 0.00 | 0.00 | 71 | 1012.6 |
| 20260506194613 | 51 | 16 | 1.0 | 4.0 | 0.00 | 0.00 | 0.00 | 69 | 1012.4 |
| 20260506193604 | 51 | 39 | 1.0 | 4.0 | 0.00 | 0.00 | 0.00 | 67 | 1012.4 |
| 20260506192602 | 52 | 181 | 1.0 | 4.0 | 0.00 | 0.00 | 0.00 | 65 | 1012.2 |
| 20260506191559 | 52 | 34 | 0.0 | 2.0 | 0.00 | 0.00 | 0.00 | 65 | 1012.1 |
| 20260506190551 | 52 | 11 | 0.0 | 4.0 | 0.00 | 0.00 | 0.00 | 64 | 1012.0 |
| 20260506185549 | 52 | 23 | 0.0 | 2.0 | 0.00 | 0.00 | 0.00 | 61 | 1011.9 |
| 20260506184540 | 53 | 0.0 | 2.0 | 0.00 | 0.00 | 0.00 | 58 | 1011.7 | |
| 20260506183538 | 53 | 39 | 1.0 | 2.0 | 0.00 | 0.00 | 0.00 | 57 | 1011.7 |
| 20260506182535 | 53 | 0 | 1.0 | 4.0 | 0.00 | 0.00 | 0.00 | 56 | 1011.5 |
| 20260506181527 | 53 | 12 | 1.0 | 4.0 | 0.00 | 0.00 | 0.00 | 56 | 1011.3 |
| 20260506180525 | 54 | 23 | 1.0 | 2.0 | 0.00 | 0.00 | 0.00 | 58 | 1011.4 |
| 20260506175516 | 54 | 23 | 0.0 | 2.0 | 0.00 | 0.00 | 0.00 | 59 | 1011.3 |
| 20260506174614 | 54 | 23 | 1.0 | 2.0 | 0.00 | 0.00 | 0.00 | 61 | 1011.2 |
| 20260506173611 | 54 | 40 | 0.0 | 4.0 | 0.00 | 0.00 | 0.00 | 64 | 1011.2 |
| 20260506172603 | 54 | 0 | 0.0 | 2.0 | 0.00 | 0.00 | 0.00 | 63 | 1011.2 |
| 20260506171600 | 54 | 0 | 0.0 | 2.0 | 0.00 | 0.00 | 0.00 | 65 | 1011.0 |
| 20260506170552 | 55 | 0 | 0.0 | 4.0 | 0.00 | 0.00 | 0.00 | 65 | 1010.9 |
| 20260506165550 | 54 | 0.0 | 2.0 | 0.00 | 0.00 | 0.00 | 66 | 1010.8 | |
| 20260506164547 | 55 | 150 | 1.0 | 4.0 | 0.00 | 0.00 | 0.00 | 65 | 1010.8 |
| 20260506163539 | 55 | 124 | 1.0 | 4.0 | 0.00 | 0.00 | 0.00 | 64 | 1010.8 |
| 20260506162536 | 56 | 27 | 1.0 | 6.0 | 0.00 | 0.00 | 0.00 | 62 | 1010.8 |
| 20260506161529 | 56 | 8 | 1.0 | 4.0 | 0.00 | 0.00 | 0.00 | 61 | 1010.7 |
| 20260506160526 | 56 | 44 | 1.0 | 4.0 | 0.00 | 0.00 | 0.00 | 60 | 1010.8 |
| 20260506155523 | 56 | 250 | 1.0 | 4.0 | 0.00 | 0.00 | 0.00 | 60 | 1010.7 |
| 20260506154515 | 56 | 123 | 3.0 | 7.0 | 0.00 | 0.00 | 0.00 | 59 | 1010.9 |
| 20260506153613 | 56 | 174 | 2.0 | 4.0 | 0.00 | 0.00 | 0.00 | 58 | 1011.0 |
| 20260506152605 | 57 | 208 | 1.0 | 4.0 | 0.00 | 0.00 | 0.00 | 58 | 1010.9 |
| 20260506151602 | 57 | 13 | 1.0 | 4.0 | 0.00 | 0.00 | 0.00 | 57 | 1010.9 |
| 20260506150600 | 57 | 0 | 0.0 | 2.0 | 0.00 | 0.00 | 0.00 | 56 | 1010.8 |
| 20260506145551 | 57 | 25 | 1.0 | 4.0 | 0.00 | 0.00 | 0.00 | 55 | 1010.9 |
| 20260506144548 | 57 | 348 | 1.0 | 4.0 | 0.00 | 0.00 | 0.00 | 54 | 1010.9 |
| 20260506143541 | 57 | 0 | 0.0 | 4.0 | 0.00 | 0.00 | 0.00 | 54 | 1010.9 |
| 20260506142538 | 57 | 3 | 1.0 | 4.0 | 0.00 | 0.00 | 0.00 | 53 | 1010.9 |
| 20260506141536 | 57 | 30 | 1.0 | 4.0 | 0.00 | 0.00 | 0.00 | 52 | 1010.9 |
| 20260506140527 | 57 | 87 | 1.0 | 4.0 | 0.00 | 0.00 | 0.00 | 51 | 1010.9 |
| 20260506135525 | 57 | 50 | 1.0 | 4.0 | 0.00 | 0.00 | 0.00 | 51 | 1010.9 |
| 20260506134516 | 57 | 29 | 1.0 | 4.0 | 0.00 | 0.00 | 0.00 | 49 | 1010.9 |
| 20260506133614 | 57 | 37 | 1.0 | 6.0 | 0.00 | 0.00 | 0.00 | 48 | 1010.8 |
| 20260506132611 | 57 | 18 | 1.0 | 4.0 | 0.00 | 0.00 | 0.00 | 48 | 1010.9 |
| 20260506131603 | 57 | 358 | 1.0 | 4.0 | 0.00 | 0.00 | 0.00 | 47 | 1010.7 |
| 20260506130601 | 57 | 134 | 1.0 | 4.0 | 0.00 | 0.00 | 0.00 | 46 | 1010.7 |
| 20260506125552 | 57 | 340 | 1.0 | 6.0 | 0.00 | 0.00 | 0.00 | 45 | 1010.7 |
| 20260506124550 | 58 | 114 | 2.0 | 6.0 | 0.00 | 0.00 | 0.00 | 45 | 1010.6 |
| 20260506123547 | 58 | 10 | 1.0 | 4.0 | 0.00 | 0.00 | 0.00 | 44 | 1010.6 |
| 20260506122539 | 58 | 10 | 2.0 | 7.0 | 0.00 | 0.00 | 0.00 | 44 | 1010.5 |
| 20260506121537 | 59 | 11 | 1.0 | 4.0 | 0.00 | 0.00 | 0.00 | 43 | 1010.4 |
| 20260506120528 | 58 | 23 | 2.0 | 4.0 | 0.00 | 0.00 | 0.00 | 43 | 1010.4 |
| 20260506115526 | 58 | 49 | 1.0 | 4.0 | 0.00 | 0.00 | 0.00 | 43 | 1010.3 |
| 20260506114523 | 58 | 94 | 2.0 | 7.0 | 0.00 | 0.00 | 0.00 | 42 | 1010.3 |
| 20260506113515 | 58 | 40 | 2.0 | 7.0 | 0.00 | 0.00 | 0.00 | 41 | 1010.2 |
| 20260506112613 | 58 | 16 | 1.0 | 4.0 | 0.00 | 0.00 | 0.00 | 41 | 1010.3 |
| 20260506111604 | 57 | 37 | 1.0 | 4.0 | 0.00 | 0.00 | 0.00 | 43 | 1010.4 |
| 20260506110602 | 57 | 12 | 2.0 | 6.0 | 0.00 | 0.00 | 0.00 | 43 | 1010.3 |
| 20260506105559 | 57 | 354 | 2.0 | 6.0 | 0.00 | 0.00 | 0.00 | 44 | 1010.4 |
| 20260506104551 | 57 | 95 | 1.0 | 4.0 | 0.00 | 0.00 | 0.00 | 44 | 1010.4 |
| 20260506103549 | 56 | 18 | 2.0 | 7.0 | 0.00 | 0.00 | 0.00 | 44 | 1010.4 |
| 20260506102540 | 57 | 73 | 1.0 | 4.0 | 0.00 | 0.00 | 0.00 | 45 | 1010.4 |
| 20260506101538 | 56 | 2 | 1.0 | 4.0 | 0.00 | 0.00 | 0.00 | 46 | 1010.4 |
| 20260506100535 | 56 | 122 | 1.0 | 4.0 | 0.00 | 0.00 | 0.00 | 46 | 1010.4 |
| 20260506095527 | 55 | 27 | 1.0 | 4.0 | 0.00 | 0.00 | 0.00 | 46 | 1010.6 |
| 20260506094525 | 55 | 18 | 2.0 | 9.0 | 0.00 | 0.00 | 0.00 | 46 | 1010.5 |
| 20260506093516 | 55 | 62 | 1.0 | 4.0 | 0.00 | 0.00 | 0.00 | 48 | 1010.6 |
| 20260506092614 | 55 | 58 | 2.0 | 4.0 | 0.00 | 0.00 | 0.00 | 48 | 1010.6 |
| 20260506091612 | 55 | 281 | 1.0 | 4.0 | 0.00 | 0.00 | 0.00 | 49 | 1010.6 |
| 20260506090603 | 54 | 354 | 1.0 | 4.0 | 0.00 | 0.00 | 0.00 | 51 | 1010.7 |
| 20260506085600 | 54 | 348 | 1.0 | 6.0 | 0.00 | 0.00 | 0.00 | 51 | 1010.7 |
| 20260506084553 | 53 | 54 | 1.0 | 4.0 | 0.00 | 0.00 | 0.00 | 52 | 1010.7 |
| 20260506083550 | 53 | 11 | 0.0 | 2.0 | 0.00 | 0.00 | 0.00 | 53 | 1010.6 |
| 20260506082547 | 53 | 2 | 1.0 | 2.0 | 0.00 | 0.00 | 0.00 | 53 | 1010.6 |
| 20260506081539 | 53 | 108 | 1.0 | 4.0 | 0.00 | 0.00 | 0.00 | 53 | 1010.6 |
| 20260506080536 | 52 | 27 | 1.0 | 4.0 | 0.00 | 0.00 | 0.00 | 55 | 1010.6 |
| 20260506073523 | 51 | 0 | 1.0 | 4.0 | 0.00 | 0.00 | 0.00 | 52 | 1010.5 |
| 20260506072515 | 51 | 0 | 1.0 | 4.0 | 0.00 | 0.00 | 0.00 | 52 | 1010.6 |
| 20260506071613 | 51 | 117 | 1.0 | 7.0 | 0.00 | 0.00 | 0.00 | 53 | 1010.5 |
| 20260506070605 | 50 | 14 | 1.0 | 4.0 | 0.00 | 0.00 | 0.00 | 54 | 1010.5 |
| 20260506061541 | 49 | 17 | 1.0 | 4.0 | 0.00 | 0.00 | 0.00 | 58 | 1010.4 |
| 20260506060538 | 49 | 0.0 | 2.0 | 0.00 | 0.00 | 0.00 | 59 | 1010.4 | |
| 20260506050611 | 48 | 0 | 1.0 | 6.0 | 0.00 | 0.00 | 0.00 | 61 | 1010.4 |
| 20260506044601 | 48 | 45 | 0.0 | 2.0 | 0.00 | 0.00 | 0.00 | 63 | 1010.4 |
| 20260506043552 | 48 | 23 | 1.0 | 4.0 | 0.00 | 0.00 | 0.00 | 65 | 1010.6 |
| 20260506042550 | 48 | 23 | 0.0 | 2.0 | 0.00 | 0.00 | 0.00 | 67 | 1010.6 |
| 20260506041547 | 47 | 0.0 | 2.0 | 0.00 | 0.00 | 0.00 | 68 | 1010.5 | |
| 20260506040539 | 47 | 0.0 | 2.0 | 0.00 | 0.00 | 0.00 | 71 | 1010.4 | |
| 20260506035537 | 45 | 0.0 | 0.0 | 0.00 | 0.00 | 0.00 | 79 | 1010.4 | |
| 20260506034528 | 46 | 0.0 | 2.0 | 0.00 | 0.00 | 0.00 | 79 | 1010.5 | |
| 20260506033526 | 46 | 0.0 | 2.0 | 0.00 | 0.00 | 0.00 | 79 | 1010.4 | |
| 20260506032523 | 46 | 0.0 | 2.0 | 0.00 | 0.00 | 0.00 | 80 | 1010.5 | |
| 20260506031515 | 45 | 0.0 | 0.0 | 0.00 | 0.00 | 0.00 | 82 | 1010.6 | |
| 20260506030613 | 45 | 0.0 | 0.0 | 0.00 | 0.00 | 0.00 | 83 | 1010.6 | |
| 20260506025604 | 45 | 0.0 | 0.0 | 0.00 | 0.00 | 0.00 | 82 | 1010.6 | |
| 20260506024602 | 45 | 0.0 | 0.0 | 0.00 | 0.00 | 0.00 | 84 | 1010.6 | |
| 20260506023559 | 45 | 0.0 | 2.0 | 0.00 | 0.00 | 0.00 | 84 | 1010.8 | |
| 20260506022552 | 45 | 0.0 | 0.0 | 0.00 | 0.00 | 0.00 | 83 | 1010.8 | |
| 20260506021549 | 45 | 0.0 | 2.0 | 0.00 | 0.00 | 0.00 | 83 | 1011.1 | |
| 20260506020540 | 44 | 0.0 | 0.0 | 0.00 | 0.00 | 0.00 | 83 | 1011.3 | |
| 20260506015538 | 45 | 0.0 | 0.0 | 0.00 | 0.00 | 0.00 | 82 | 1011.2 | |
| 20260506014535 | 46 | 0.0 | 2.0 | 0.00 | 0.00 | 0.00 | 80 | 1011.3 | |
| 20260506013528 | 46 | 0.0 | 0.0 | 0.00 | 0.00 | 0.00 | 79 | 1011.2 | |
| 20260506012525 | 46 | 0.0 | 0.0 | 0.00 | 0.00 | 0.00 | 80 | 1011.2 | |
| 20260506011516 | 46 | 0.0 | 0.0 | 0.00 | 0.00 | 0.00 | 79 | 1011.2 | |
| 20260506010614 | 47 | 0.0 | 0.0 | 0.00 | 0.00 | 0.00 | 79 | 1011.3 | |
| 20260506005611 | 47 | 0.0 | 0.0 | 0.00 | 0.00 | 0.00 | 79 | 1011.3 | |
| 20260506004604 | 47 | 0.0 | 0.0 | 0.00 | 0.00 | 0.00 | 79 | 1011.5 | |
| 20260506003601 | 47 | 0.0 | 2.0 | 0.00 | 0.00 | 0.00 | 80 | 1011.6 | |
| 20260506002553 | 47 | 0.0 | 0.0 | 0.00 | 0.00 | 0.00 | 80 | 1011.7 | |
| 20260506001550 | 47 | 0.0 | 0.0 | 0.00 | 0.00 | 0.00 | 79 | 1011.7 | |
| 20260506000547 | 47 | 0.0 | 0.0 | 0.00 | 0.00 | 0.00 | 79 | 1011.6 | |
| 20260505235539 | 47 | 0.0 | 0.0 | 0.00 | 0.00 | 0.00 | 79 | 1011.9 | |
| 20260505234536 | 47 | 0.0 | 0.0 | 0.00 | 0.00 | 0.00 | 78 | 1011.7 | |
| 20260505233529 | 47 | 0.0 | 0.0 | 0.00 | 0.00 | 0.00 | 78 | 1011.8 | |
| 20260505232526 | 47 | 0.0 | 0.0 | 0.00 | 0.00 | 0.00 | 78 | 1011.9 |